Regional Weather Roundup
Issued by NWS

Home | Current Version | Previous Version | Graphics & Text | Print | Product List | Glossary On
Versions: 1 2 3 4 5 6 7 8 9 10 11 12 13 14 15 16 17 18 19 20 21 22 23 24 25 26 27 28 29 30 31 32 33 34 35 36 37 38 39 40 41 42 43 44 45 46 47 48 49 50
000
ASUS45 KSLC 010710
RWRUT

UTAH REGIONAL WEATHER ROUNDUP
NATIONAL WEATHER SERVICE SALT LAKE CITY UT
100 AM MDT FRI AUG 01 2014

UTZ001>011-023>025-010800-

NORTHERN UTAH

CITY           SKY/WX    TMP DP  RH WIND       PRES   REMARKS
HILL AFB       MOCLDY    68  51  55 SE13      30.17R
LOGAN          CLEAR     60  53  77 CALM      30.15S
OGDEN          PTCLDY    69  51  52 S9        30.14S
PROVO AIRPORT  PTCLDY    68  54  60 SE5       30.17S
SALT LAKE CITY MOCLDY    71  54  54 S3        30.13S
VERNAL         MOCLDY    65  43  44 NW7       30.18S
WENDOVER       PTCLDY    72  45  37 S3        30.14S
HEBER CITY     PTCLDY    57  54  88 CALM      30.24S
WEST JORDAN    CLEAR     72  54  53 W6        30.17S

$$

UTZ012>022-026-027-010800-

SOUTHERN UTAH

CITY           SKY/WX    TMP DP  RH WIND       PRES   REMARKS
BRYCE CANYON   CLOUDY    56  51  84 SE6       30.38F
CEDAR CITY     CLOUDY    62  53  72 NE7       30.22R
MILFORD        MOCLDY    64  55  72 CALM      30.18F
MOAB/CYNLANDS  CLEAR     66  57  72 SE9       30.13F
PRICE          MOCLDY    62  50  64 NE8       30.24S
ST GEORGE      MOSUNNY   82  52  34 W5        30.04R
KANAB          MOCLDY    66  52  59 NE14G23   30.23F

$$

REGIONAL REPORTS     COLORADO/ARIZONA

CITY           SKY/WX    TMP DP  RH WIND       PRES   REMARKS
CRAIG, CO      CLOUDY    55  50  83 NE7       30.25R
GRAND JUNCTION CLOUDY    72  53  51 NE6       30.14R
RIFLE          CLOUDY    66  50  56 SE8       30.20S
MONTROSE       MOCLDY    68  53  58 SE3       30.22F
CORTEZ         CLEAR     67  53  61 VRB3      30.26R
PAGE, AZ       CLOUDY    79  49  34 W10G24    30.16R
GRAND CANYON   MOCLDY    54  51  90 CALM      30.32S
KINGMAN        CLOUDY    83  50  31 SE10      30.03S
FLAGSTAFF      CLOUDY    56  54  93 E3        30.35S

$$

REGIONAL REPORTS    NEVADA/IDAHO/WYOMING

CITY           SKY/WX    TMP DP  RH WIND       PRES   REMARKS
LAS VEGAS, NV  PTCLDY    95  47  19 NE10      29.85R HX  91
ELY            MOCLDY    55  45  68 E5        30.29S
ELKO           CLOUDY    62  52  69 CALM      30.21S
POCATELLO, ID  CLEAR     71  48  43 W8        30.16F
BURLEY         MOCLDY    64  51  62 SW5       30.14S
EVANSTON, WY   PTCLDY    61  42  49 CALM      30.33S
ROCK SPRINGS   PTCLDY    63  34  33 NE5       30.31R

$$



USA.gov is the U.S. government's official web portal to all federal, state and local government web resources and services.